Burlington Piers, Ontario

12:14 AM EDT on August 19, 2017 (GMT -0400)
Burlington Piers

Weather History for CWWB - October, 2011

Change the Weather History Date:

Monday, October 31, 2011

  Actual Average Record
Temperature  
Mean Temperature 44 °F -  
Max Temperature 47 °F - - ()
Min Temperature 42 °F - - ()
Degree Days  
Heating Degree Days 20    
Moisture  
Dew Point 39 °F    
Average Humidity 79    
Maximum Humidity 86    
Minimum Humidity 68    
Precipitation  
Precipitation 0.00 in - - ()
Sea Level Pressure  
Sea Level Pressure 30.18 in    
Wind  
Wind Speed 5 mph ()    
Max Wind Speed 14 mph    
Max Gust Speed -    
T = Trace of Precipitation, MM = Missing Value Source: Averaged Metar Reports

Daily Weather History Graph

Daily Weather History Graph

Search for Another Location

Airport or City:

Trip Planner

Search our weather history database for the weather conditions in past years. The results will help you decide how hot, cold, wet, or windy it might be!

Date:

Astronomy

Oct. 31, 2011 Rise Set
Actual Time 7:52 AM EDT 6:12 PM EDT
Civil Twilight 7:23 AM EDT 6:41 PM EDT
Nautical Twilight 6:49 AM EDT 7:15 PM EDT
Astronomical Twilight 6:16 AM EDT 7:48 PM EDT
Moon 1:02 PM EDT (10/31) 10:43 PM EDT (10/31)
Length of Visible Light 11h 18m
Length of Day
10h 19m
Waxing Crescent, 29% of the Moon is Illuminated
Oct 31
Waxing Crescent
Nov 2
First Quarter
Nov 10
Full
Nov 18
Last Quarter
Nov 25
New

Hourly Weather History & Observations

Time (EDT) Temp. Windchill Dew Point Humidity Pressure Visibility Wind Dir Wind Speed Gust Speed Precip Events Conditions
12:00 AM 45.3 °F 41.1 °F 37.4 °F 74% 30.22 in - South 8.1 mph - N/A   Unknown
1:00 AM 45.1 °F 41.4 °F 37.4 °F 74% 30.22 in - SSW 6.9 mph - N/A   Unknown
2:00 AM 45 °F - 38 °F 68% 30.22 in - South 4.6 mph - -  
2:00 AM 45.0 °F 42.6 °F 37.9 °F 76% 30.22 in - South 4.6 mph - N/A   Unknown
3:00 AM 43.9 °F 41.3 °F 37.4 °F 78% 30.22 in - SSE 4.6 mph - N/A   Unknown
4:00 AM 44.1 °F 41.5 °F 37.8 °F 78% 30.20 in - SSE 4.6 mph - N/A   Unknown
5:00 AM 44.2 °F 42.7 °F 38.3 °F 80% 30.20 in - SE 3.5 mph - N/A   Unknown
6:00 AM 44.1 °F - 37.8 °F 78% 30.20 in - SSE 1.2 mph - N/A   Unknown
7:00 AM 42.8 °F - 38.7 °F 85% 30.18 in - North 2.3 mph - N/A   Unknown
8:00 AM 42 °F - 38 °F 82% 30.19 in - North 3.5 mph - -  
8:00 AM 42.1 °F 40.2 °F 38.3 °F 86% 30.19 in - North 3.5 mph - N/A   Unknown
9:00 AM 42.1 °F 39.2 °F 38.1 °F 86% 30.19 in - North 4.6 mph - N/A   Unknown
10:00 AM 44.1 °F 41.5 °F 39.0 °F 82% 30.18 in - North 4.6 mph - N/A   Unknown
12:00 PM 45.9 °F 41.7 °F 38.5 °F 75% 30.16 in - NE 8.1 mph - N/A   Unknown
1:00 PM 46.0 °F 41.0 °F 40.1 °F 80% 30.14 in - NNE 10.4 mph - N/A   Unknown
2:00 PM 47 °F - 40 °F 69% 30.12 in - NE 9.2 mph - -  
2:00 PM 46.9 °F - 40.1 °F 77% 30.12 in - NE 9.2 mph - N/A   Unknown
3:00 PM 46.2 °F 40.1 °F 38.8 °F 75% 30.12 in - NNE 13.8 mph - N/A   Unknown
4:00 PM 46.0 °F 40.2 °F 40.1 °F 80% 30.12 in - NE 12.7 mph - N/A   Unknown
5:00 PM 45.9 °F 41.2 °F 39.7 °F 79% 30.14 in - NE 9.2 mph - N/A   Unknown
6:00 PM 45.9 °F 42.3 °F 40.5 °F 81% 30.15 in - NE 6.9 mph - N/A   Unknown
7:00 PM 46.0 °F 43.1 °F 40.6 °F 81% 30.17 in - NNE 5.8 mph - N/A   Unknown
8:00 PM 46 °F - 42 °F 80% 30.18 in - NE 4.6 mph - -  
8:00 PM 46.4 °F 44.3 °F 41.9 °F 84% 30.18 in - NE 4.6 mph - N/A   Unknown
9:00 PM 46.6 °F - 42.3 °F 85% 30.18 in - NNE 3.5 mph - N/A   Unknown
10:00 PM 47.3 °F - 41.9 °F 82% 30.19 in - ESE 5.8 mph - N/A   Unknown
11:00 PM 47.5 °F - 41.9 °F 81% 30.19 in - SE 6.9 mph - N/A   Unknown